Location: Unspecified
(0.0000°N, 0.0000°E)
Time: 04:54:39
(UTC+00:00)

OBJECT M - Visible Passes

Search period start: 08 June 2023 00:00
Search period end: 18 June 2023 00:00
Orbit: 577 x 592 km, 97.4° (Epoch: 07 June)

Date Brightness Start Highest point End Pass type
(mag) Time Alt. Az. Time Alt. Az. Time Alt. Az.
08 Jun ? 19:13:23 10° NNW 19:17:02 31° W 19:20:41 10° SW visible
09 Jun ? 19:19:52 10° NNW 19:23:15 25° WNW 19:26:39 10° SW visible
10 Jun ? 19:26:25 10° NNW 19:29:29 20° WNW 19:32:32 10° SW visible
11 Jun ? 19:33:05 10° NW 19:35:41 16° WNW 19:38:18 10° WSW visible
12 Jun ? 19:39:54 10° NW 19:41:54 13° WNW 19:43:52 10° WSW visible
13 Jun ? 19:47:17 10° WNW 19:48:05 10° WNW 19:48:54 10° W visible
15 Jun ? 18:21:26 10° NNE 18:25:18 41° E 18:29:10 10° S visible
16 Jun ? 18:27:29 10° NNE 18:31:29 52° E 18:35:28 10° S visible
17 Jun ? 18:33:35 10° NNE 18:37:39 66° E 18:41:44 10° S visible
